This is the latest recevied weather packets stored in our database for station/object BMCB-27. If no packets are shown the sender has not sent any weather packets the latest 10 day(s).
| Time | Temp. | Humidity | Pressure | Rain* | Wind** | Luminosity | Snow |
|---|---|---|---|---|---|---|---|
| 1778009157 | 9.44° C | 10% | 1007 hPa | 0.76 mm | - | - | - |
| 1777997062 | 10° C | 10% | 1007 hPa | 0 mm | - | - | - |
| 1777988773 | 10° C | 10% | 1007.5 hPa | 0 mm | - | - | - |
| 1777974939 | 10.56° C | 10% | 1008.4 hPa | 0 mm | - | - | - |
| 1777968354 | 10.56° C | 10% | 1008.6 hPa | 0 mm | - | - | - |
| 1777966033 | 10.56° C | 10% | 1008.6 hPa | 0 mm | - | - | - |
| 1777965357 | 11.11° C | 10% | 1008.6 hPa | 0.25 mm | - | - | - |
| 1777962389 | 11.11° C | 10% | 1008.6 hPa | 0.51 mm | - | - | - |
| 1777960127 | 11.67° C | 10% | 1008.6 hPa | 1.52 mm | - | - | - |
| 1777956700 | 11.67° C | 10% | 1008.5 hPa | 5.33 mm | - | - | - |
| 1777955450 | 11.67° C | 10% | 1008.6 hPa | 4.83 mm | - | - | - |
| 1777954642 | 11.67° C | 10% | 1008.6 hPa | 3.81 mm | - | - | - |
| 1777952274 | 11.67° C | 99% | 1008.8 hPa | 0.76 mm | - | 0 W/m² | - |
| 1777939873 | 11.67° C | 99% | 1009.9 hPa | 0 mm | - | 0 W/m² | - |
| 1777933737 | 11.67° C | 96% | 1010.6 hPa | 0 mm | - | 0 W/m² | - |
| 1777931233 | 11.67° C | 96% | 1010.9 hPa | 0 mm | - | 0 W/m² | - |
| 1777927876 | 11.67° C | 95% | 1011.2 hPa | 0 mm | - | 0 W/m² | - |
| 1777925704 | 11.67° C | 96% | 1011.2 hPa | 0 mm | - | 0 W/m² | - |
| 1777906865 | 14.44° C | 90% | 1011.1 hPa | 0.51 mm | - | 158 W/m² | - |
| 1777905067 | 14.44° C | 91% | 1011.3 hPa | 0.25 mm | - | 240 W/m² | - |
| 1777903272 | 15.56° C | 88% | 1011.4 hPa | 0.25 mm | - | 234 W/m² | - |
| 1777902666 | 15.56° C | 88% | 1011.5 hPa | 0.25 mm | - | 206 W/m² | - |
| 1777900263 | 15.56° C | 86% | 1011.7 hPa | 0 mm | - | 190 W/m² | - |
| 1777898467 | 15° C | 86% | 1011.9 hPa | 0 mm | - | 126 W/m² | - |
| 1777897862 | 15° C | 86% | 1011.9 hPa | 0 mm | - | 194 W/m² | - |
* Rain latest hour (hover to see other rain measurements)
** Current wind speed in m/s (hover to see current wind gust speed)